Time,TemperatureF,DewpointF,PressureIn,WindDirection,WindDirectionDegrees,WindSpeedMPH,WindSpeedGustMPH,Humidity,HourlyPrecipIn,Conditions,Clouds,dailyrainin,SoftwareType,DateUTC
2013-02-12 00:01:00,25.0,19.0,-100.00,NE,55,11.0,26.0,78,-99.99,,,-99.99,,2013-02-12 05:01:00,
2013-02-12 00:11:00,25.0,19.0,-100.00,NE,55,11.0,26.0,78,-99.99,,,-99.99,,2013-02-12 05:11:00,
2013-02-12 00:21:00,25.0,19.0,-100.00,NNE,30,19.0,29.0,77,-99.99,,,-99.99,,2013-02-12 05:21:00,
2013-02-12 00:32:00,25.0,19.0,-100.00,NE,55,14.0,28.0,78,-99.99,,,-99.99,,2013-02-12 05:32:00,
2013-02-12 00:42:00,25.0,19.0,-100.00,NE,55,14.0,28.0,78,-99.99,,,-99.99,,2013-02-12 05:42:00,
2013-02-12 00:52:00,25.0,19.0,-100.00,NE,35,11.0,26.0,77,-99.99,,,-99.99,,2013-02-12 05:52:00,
2013-02-12 01:02:00,25.0,19.0,-100.00,NE,45,9.0,26.0,78,-99.99,,,-99.99,,2013-02-12 06:02:00,
2013-02-12 01:12:00,25.0,19.0,-100.00,NE,45,9.0,26.0,78,-99.99,,,-99.99,,2013-02-12 06:12:00,
2013-02-12 01:22:00,25.0,19.0,-100.00,NE,35,11.0,23.0,78,-99.99,,,-99.99,,2013-02-12 06:22:00,
2013-02-12 01:32:00,25.0,20.0,-100.00,NNE,30,9.0,18.0,80,-99.99,,,-99.99,,2013-02-12 06:32:00,
2013-02-12 01:42:00,25.0,20.0,-100.00,NNE,30,9.0,18.0,80,-99.99,,,-99.99,,2013-02-12 06:42:00,
2013-02-12 01:52:00,25.0,20.0,-100.00,NE,50,11.0,21.0,80,-99.99,,,-99.99,,2013-02-12 06:52:00,
2013-02-12 02:02:00,25.0,20.0,-100.00,NNE,25,13.0,24.0,81,-99.99,,,-99.99,,2013-02-12 07:02:00,
2013-02-12 02:12:00,25.0,20.0,-100.00,NNE,25,13.0,24.0,81,-99.99,,,-99.99,,2013-02-12 07:12:00,
2013-02-12 02:21:00,24.0,19.0,-100.00,NNE,30,13.0,24.0,81,-99.99,,,-99.99,,2013-02-12 07:21:00,
2013-02-12 02:32:00,24.0,19.0,-100.00,NE,35,11.0,21.0,81,-99.99,,,-99.99,,2013-02-12 07:32:00,
2013-02-12 02:42:00,24.0,19.0,-100.00,NE,35,11.0,21.0,81,-99.99,,,-99.99,,2013-02-12 07:42:00,
2013-02-12 02:51:00,24.0,19.0,-100.00,NNE,20,11.0,24.0,80,-99.99,,,-99.99,,2013-02-12 07:51:00,
2013-02-12 03:01:00,24.0,19.0,-100.00,NNE,20,13.0,24.0,80,-99.99,,,-99.99,,2013-02-12 08:01:00,
2013-02-12 03:11:00,24.0,19.0,-100.00,NNE,20,13.0,24.0,80,-99.99,,,-99.99,,2013-02-12 08:11:00,
2013-02-12 03:22:00,24.0,19.0,-100.00,NE,45,9.0,21.0,79,-99.99,,,-99.99,,2013-02-12 08:22:00,
2013-02-12 03:32:00,24.0,19.0,-100.00,NNE,25,11.0,20.0,79,-99.99,,,-99.99,,2013-02-12 08:32:00,
2013-02-12 03:42:00,24.0,19.0,-100.00,NNE,25,11.0,20.0,79,-99.99,,,-99.99,,2013-02-12 08:42:00,
2013-02-12 03:50:00,24.0,20.0,-100.00,NNE,30,9.0,22.0,82,-99.99,,,-99.99,,2013-02-12 08:50:00,
2013-02-12 03:52:00,24.0,19.0,-100.00,NE,35,10.0,17.0,79,-99.99,,,-99.99,,2013-02-12 08:52:00,
2013-02-12 04:02:00,24.0,19.0,-100.00,NNE,25,9.0,22.0,80,-99.99,,,-99.99,,2013-02-12 09:02:00,
2013-02-12 04:11:00,24.0,19.0,-100.00,NNE,25,9.0,22.0,80,-99.99,,,-99.99,,2013-02-12 09:11:00,
2013-02-12 04:20:00,24.0,20.0,-100.00,NE,40,11.0,22.0,83,-99.99,,,-99.99,,2013-02-12 09:20:00,
2013-02-12 04:22:00,24.0,19.0,-100.00,NNE,25,11.0,23.0,81,-99.99,,,-99.99,,2013-02-12 09:22:00,
2013-02-12 04:32:00,24.0,20.0,-100.00,NNE,30,9.0,22.0,82,-99.99,,,-99.99,,2013-02-12 09:32:00,
2013-02-12 04:42:00,24.0,20.0,-100.00,NNE,30,9.0,22.0,82,-99.99,,,-99.99,,2013-02-12 09:42:00,
2013-02-12 05:02:00,24.0,20.0,-100.00,NE,40,11.0,22.0,83,-99.99,,,-99.99,,2013-02-12 10:02:00,
2013-02-12 05:11:00,24.0,20.0,-100.00,NE,40,11.0,22.0,83,-99.99,,,-99.99,,2013-02-12 10:11:00,
2013-02-12 08:52:00,26.0,21.0,-100.00,NNE,20,10.0,18.0,83,-99.99,,,-99.99,,2013-02-12 13:52:00,
2013-02-12 09:01:00,26.0,22.0,-100.00,NNE,25,11.0,22.0,85,-99.99,,,-99.99,,2013-02-12 14:01:00,
2013-02-12 09:12:00,26.0,22.0,-100.00,NNE,25,11.0,22.0,85,-99.99,,,-99.99,,2013-02-12 14:12:00,
2013-02-12 09:22:00,26.0,22.0,-100.00,NNE,20,12.0,21.0,86,-99.99,,,-99.99,,2013-02-12 14:22:00,
2013-02-12 09:32:00,26.0,22.0,-100.00,NNE,30,13.0,25.0,86,-99.99,,,-99.99,,2013-02-12 14:32:00,
2013-02-12 09:42:00,26.0,22.0,-100.00,NNE,30,13.0,25.0,86,-99.99,,,-99.99,,2013-02-12 14:42:00,
2013-02-12 09:52:00,26.0,21.0,-100.00,NNE,25,13.0,23.0,84,-99.99,,,-99.99,,2013-02-12 14:52:00,
2013-02-12 10:02:00,26.0,21.0,-100.00,North,10,7.0,21.0,84,-99.99,,,-99.99,,2013-02-12 15:02:00,
2013-02-12 10:11:00,26.0,21.0,-100.00,North,10,7.0,21.0,84,-99.99,,,-99.99,,2013-02-12 15:11:00,
2013-02-12 10:21:00,25.0,21.0,-100.00,NE,45,11.0,24.0,84,-99.99,,,-99.99,,2013-02-12 15:21:00,
2013-02-12 10:32:00,25.0,21.0,-100.00,NNE,20,11.0,22.0,84,-99.99,,,-99.99,,2013-02-12 15:32:00,
2013-02-12 10:42:00,25.0,21.0,-100.00,NNE,20,11.0,22.0,84,-99.99,,,-99.99,,2013-02-12 15:42:00,
2013-02-12 10:52:00,26.0,21.0,-100.00,NNE,25,11.0,26.0,83,-99.99,,,-99.99,,2013-02-12 15:52:00,
2013-02-12 11:02:00,26.0,21.0,-100.00,NNE,30,11.0,23.0,83,-99.99,,,-99.99,,2013-02-12 16:02:00,
2013-02-12 11:11:00,26.0,21.0,-100.00,NNE,30,11.0,23.0,83,-99.99,,,-99.99,,2013-02-12 16:11:00,
2013-02-12 11:52:00,26.0,19.0,-100.00,NNE,30,11.0,19.0,75,-99.99,,,-99.99,,2013-02-12 16:52:00,
2013-02-12 12:01:00,26.0,19.0,-100.00,NNE,30,11.0,19.0,75,-99.99,,,-99.99,,2013-02-12 17:01:00,
2013-02-12 12:12:00,26.0,19.0,-100.00,NNE,30,11.0,19.0,75,-99.99,,,-99.99,,2013-02-12 17:12:00,
2013-02-12 12:21:00,27.0,19.0,-100.00,NE,35,11.0,23.0,74,-99.99,,,-99.99,,2013-02-12 17:21:00,
2013-02-12 12:32:00,27.0,19.0,-100.00,NNE,30,10.0,23.0,72,-99.99,,,-99.99,,2013-02-12 17:32:00,
2013-02-12 12:42:00,27.0,19.0,-100.00,NNE,30,10.0,23.0,72,-99.99,,,-99.99,,2013-02-12 17:42:00,
2013-02-12 12:52:00,27.0,18.0,-100.00,NE,45,9.0,17.0,69,-99.99,,,-99.99,,2013-02-12 17:52:00,
2013-02-12 13:02:00,27.0,18.0,-100.00,NNE,20,9.0,21.0,69,-99.99,,,-99.99,,2013-02-12 18:02:00,
2013-02-12 13:12:00,27.0,18.0,-100.00,NNE,20,9.0,21.0,69,-99.99,,,-99.99,,2013-02-12 18:12:00,
2013-02-12 13:23:00,27.0,18.0,-100.00,NE,35,9.0,19.0,69,-99.99,,,-99.99,,2013-02-12 18:23:00,
2013-02-12 13:32:00,27.0,18.0,-100.00,NE,45,15.0,21.0,67,-99.99,,,-99.99,,2013-02-12 18:32:00,
2013-02-12 13:42:00,27.0,18.0,-100.00,NE,45,15.0,21.0,67,-99.99,,,-99.99,,2013-02-12 18:42:00,
2013-02-12 13:51:00,28.0,19.0,-100.00,NE,55,11.0,20.0,68,-99.99,,,-99.99,,2013-02-12 18:51:00,
2013-02-12 14:02:00,27.0,18.0,-100.00,NE,45,11.0,20.0,67,-99.99,,,-99.99,,2013-02-12 19:02:00,
2013-02-12 14:11:00,27.0,18.0,-100.00,NE,45,11.0,20.0,67,-99.99,,,-99.99,,2013-02-12 19:11:00,
2013-02-12 14:21:00,27.0,18.0,-100.00,NE,55,10.0,18.0,68,-99.99,,,-99.99,,2013-02-12 19:21:00,
2013-02-12 14:32:00,27.0,18.0,-100.00,NNE,25,9.0,16.0,68,-99.99,,,-99.99,,2013-02-12 19:32:00,
2013-02-12 14:42:00,27.0,18.0,-100.00,NNE,25,9.0,16.0,68,-99.99,,,-99.99,,2013-02-12 19:42:00,
2013-02-12 14:52:00,27.0,18.0,-100.00,NNE,25,7.0,18.0,67,-99.99,,,-99.99,,2013-02-12 19:52:00,
2013-02-12 15:01:00,27.0,18.0,-100.00,NE,40,7.0,18.0,67,-99.99,,,-99.99,,2013-02-12 20:01:00,
2013-02-12 15:11:00,27.0,18.0,-100.00,NE,40,7.0,18.0,67,-99.99,,,-99.99,,2013-02-12 20:11:00,
2013-02-12 15:22:00,27.0,17.0,-100.00,NE,45,7.0,20.0,66,-99.99,,,-99.99,,2013-02-12 20:22:00,
2013-02-12 15:32:00,27.0,17.0,-100.00,NE,45,7.0,20.0,66,-99.99,,,-99.99,,2013-02-12 20:32:00,
2013-02-12 15:52:00,26.0,20.0,-100.00,NNE,15,6.0,14.0,77,-99.99,,,-99.99,,2013-02-12 20:52:00,
2013-02-12 16:02:00,26.0,19.0,-100.00,NNE,15,8.0,18.0,75,-99.99,,,-99.99,,2013-02-12 21:02:00,
2013-02-12 16:11:00,26.0,19.0,-100.00,NNE,15,8.0,18.0,75,-99.99,,,-99.99,,2013-02-12 21:11:00,
2013-02-12 16:21:00,27.0,19.0,-100.00,NE,45,5.0,11.0,74,-99.99,,,-99.99,,2013-02-12 21:21:00,
2013-02-12 16:32:00,26.0,18.0,-100.00,NE,35,9.0,19.0,71,-99.99,,,-99.99,,2013-02-12 21:32:00,
2013-02-12 16:42:00,26.0,18.0,-100.00,NE,35,9.0,19.0,71,-99.99,,,-99.99,,2013-02-12 21:42:00,
2013-02-12 16:51:00,26.0,17.0,-100.00,NNE,30,9.0,14.0,68,-99.99,,,-99.99,,2013-02-12 21:51:00,
2013-02-12 17:01:00,26.0,17.0,-100.00,NNE,30,4.0,14.0,68,-99.99,,,-99.99,,2013-02-12 22:01:00,
2013-02-12 17:12:00,26.0,17.0,-100.00,NNE,30,4.0,14.0,68,-99.99,,,-99.99,,2013-02-12 22:12:00,
2013-02-12 17:22:00,26.0,17.0,-100.00,NNE,20,9.0,16.0,68,-99.99,,,-99.99,,2013-02-12 22:22:00,
2013-02-12 17:32:00,26.0,17.0,-100.00,NNE,15,7.0,15.0,70,-99.99,,,-99.99,,2013-02-12 22:32:00,
2013-02-12 17:42:00,26.0,17.0,-100.00,NNE,15,7.0,15.0,70,-99.99,,,-99.99,,2013-02-12 22:42:00,
2013-02-12 17:52:00,26.0,18.0,-100.00,NE,45,8.0,16.0,72,-99.99,,,-99.99,,2013-02-12 22:52:00,
2013-02-12 18:02:00,26.0,18.0,-100.00,NNE,25,4.0,13.0,73,-99.99,,,-99.99,,2013-02-12 23:02:00,
2013-02-12 18:11:00,26.0,18.0,-100.00,NNE,25,4.0,13.0,73,-99.99,,,-99.99,,2013-02-12 23:11:00,
2013-02-12 18:21:00,26.0,19.0,-100.00,NNE,25,5.0,12.0,75,-99.99,,,-99.99,,2013-02-12 23:21:00,
2013-02-12 18:32:00,26.0,19.0,-100.00,NNE,15,9.0,16.0,74,-99.99,,,-99.99,,2013-02-12 23:32:00,
2013-02-12 18:42:00,26.0,19.0,-100.00,NNE,15,9.0,16.0,74,-99.99,,,-99.99,,2013-02-12 23:42:00,
2013-02-12 18:52:00,26.0,18.0,-100.00,NNE,15,8.0,16.0,74,-99.99,,,-99.99,,2013-02-12 23:52:00,
2013-02-12 19:02:00,26.0,19.0,-100.00,NNE,30,7.0,13.0,76,-99.99,,,-99.99,,2013-02-13 00:02:00,
2013-02-12 19:11:00,26.0,19.0,-100.00,NNE,30,7.0,13.0,76,-99.99,,,-99.99,,2013-02-13 00:11:00,
2013-02-12 19:22:00,26.0,19.0,-100.00,NNE,25,6.0,14.0,77,-99.99,,,-99.99,,2013-02-13 00:22:00,
2013-02-12 19:32:00,26.0,20.0,-100.00,NNE,15,6.0,14.0,79,-99.99,,,-99.99,,2013-02-13 00:32:00,
2013-02-12 19:42:00,26.0,20.0,-100.00,NNE,15,6.0,14.0,79,-99.99,,,-99.99,,2013-02-13 00:42:00,
2013-02-12 19:52:00,26.0,20.0,-100.00,NNE,25,6.0,13.0,80,-99.99,,,-99.99,,2013-02-13 00:52:00,
2013-02-12 20:01:00,26.0,20.0,-100.00,North,10,5.0,11.0,79,-99.99,,,-99.99,,2013-02-13 01:01:00,
2013-02-12 20:11:00,26.0,20.0,-100.00,North,10,5.0,11.0,79,-99.99,,,-99.99,,2013-02-13 01:11:00,
2013-02-12 20:21:00,26.0,20.0,-100.00,NNE,20,4.0,13.0,78,-99.99,,,-99.99,,2013-02-13 01:21:00,
2013-02-12 20:32:00,26.0,20.0,-100.00,NNE,15,4.0,10.0,77,-99.99,,,-99.99,,2013-02-13 01:32:00,
2013-02-12 20:42:00,26.0,20.0,-100.00,NNE,15,4.0,10.0,77,-99.99,,,-99.99,,2013-02-13 01:42:00,
2013-02-12 20:52:00,26.0,19.0,-100.00,North,0,6.0,11.0,76,-99.99,,,-99.99,,2013-02-13 01:52:00,
2013-02-12 21:01:00,26.0,19.0,-100.00,North,0,6.0,11.0,76,-99.99,,,-99.99,,2013-02-13 02:01:00,
2013-02-12 21:11:00,26.0,19.0,-100.00,North,0,6.0,11.0,76,-99.99,,,-99.99,,2013-02-13 02:11:00,
2013-02-12 21:22:00,26.0,19.0,-100.00,NNE,15,5.0,13.0,76,-99.99,,,-99.99,,2013-02-13 02:22:00,
2013-02-12 21:32:00,26.0,20.0,-100.00,NNE,25,4.0,9.0,77,-99.99,,,-99.99,,2013-02-13 02:32:00,
2013-02-12 21:42:00,26.0,20.0,-100.00,NNE,25,4.0,9.0,77,-99.99,,,-99.99,,2013-02-13 02:42:00,
2013-02-12 21:52:00,26.0,20.0,-100.00,NNE,25,4.0,11.0,77,-99.99,,,-99.99,,2013-02-13 02:52:00,
2013-02-12 22:02:00,26.0,19.0,-100.00,North,10,6.0,17.0,74,-99.99,,,-99.99,,2013-02-13 03:02:00,
2013-02-12 22:12:00,26.0,19.0,-100.00,North,10,6.0,17.0,74,-99.99,,,-99.99,,2013-02-13 03:12:00,
2013-02-12 22:21:00,26.0,18.0,-100.00,North,5,6.0,11.0,73,-99.99,,,-99.99,,2013-02-13 03:21:00,
2013-02-12 22:32:00,26.0,18.0,-100.00,North,5,4.0,11.0,72,-99.99,,,-99.99,,2013-02-13 03:32:00,
2013-02-12 22:42:00,26.0,18.0,-100.00,North,5,4.0,11.0,72,-99.99,,,-99.99,,2013-02-13 03:42:00,
2013-02-12 22:51:00,26.0,18.0,-100.00,North,10,7.0,14.0,73,-99.99,,,-99.99,,2013-02-13 03:51:00,
2013-02-12 23:01:00,26.0,19.0,-100.00,North,0,3.0,14.0,73,-99.99,,,-99.99,,2013-02-13 04:01:00,
2013-02-12 23:11:00,26.0,19.0,-100.00,North,0,3.0,14.0,73,-99.99,,,-99.99,,2013-02-13 04:11:00,
2013-02-12 23:21:00,26.0,18.0,-100.00,North,355,6.0,14.0,72,-99.99,,,-99.99,,2013-02-13 04:21:00,
2013-02-12 23:32:00,26.0,18.0,-100.00,North,350,6.0,15.0,72,-99.99,,,-99.99,,2013-02-13 04:32:00,
2013-02-12 23:42:00,26.0,18.0,-100.00,North,350,6.0,15.0,72,-99.99,,,-99.99,,2013-02-13 04:42:00,
2013-02-12 23:51:00,26.0,19.0,-100.00,NNE,20,4.0,13.0,73,-99.99,,,-99.99,,2013-02-13 04:51:00,